Location: Asbacherhof
(48.8543°N, 10.7903°E)
Time: 22:31:15
(UTC+00:00)

Lacrosse 5 rocket - Pass Details

Date: 26 May 2022
Orbit: 457 x 629 km, 57.0° (Epoch: 26 June)

Event Time Altitude Azimuth Distance (km) Brightness Sun altitude
Exits shadow 01:21:48 24° 184° (S) 1,095 2.3 -14.5°
Maximum altitude 01:23:34 37° 134° (SE) 814 2.1 -14.3°
Drops below altitude 10° 01:27:20 10° 66° (ENE) 1,805 4.8 -14.0°
Sets 01:29:44 0° 58° (ENE) 2,736 6.1 -13.8°
